Andover, NJ

5:21 PM EDT on July 24, 2016 (GMT -0400)
Andover

Weather History for K12N - April, 2014

Change the Weather History Date:

Thursday, April 3, 2014

  Actual Average (KFWN) Record (KFWN)
Temperature  
Mean Temperature 50 °F -  
Max Temperature 64 °F 53 °F 81 °F (1963)
Min Temperature 37 °F 30 °F 19 °F (2008)
Degree Days  
Heating Degree Days 14    
Moisture  
Dew Point 26 °F    
Average Humidity 48    
Maximum Humidity 100    
Minimum Humidity 15    
Precipitation  
Precipitation 0.04 in - - ()
Sea Level Pressure  
Sea Level Pressure 30.09 in    
Wind  
Wind Speed 2 mph (NNE)    
Max Wind Speed 7 mph    
Max Gust Speed -    
Averages and records for this station are not official NWS values.
T = Trace of Precipitation, MM = Missing Value Source: NWS Daily Summary

Daily Weather History Graph

Daily Weather History Graph

Search for Another Location

Airport or City:

Trip Planner

Search our weather history database for the weather conditions in past years. The results will help you decide how hot, cold, wet, or windy it might be!

Date:

Astronomy

Apr. 03, 2014 Rise Set
Actual Time 6:39 AM EDT 7:26 PM EDT
Civil Twilight 6:11 AM EDT 7:53 PM EDT
Nautical Twilight 5:38 AM EDT 8:26 PM EDT
Astronomical Twilight 5:04 AM EDT 9:01 PM EDT
Moon 9:04 AM EDT (4/3) 11:44 PM EDT (4/3)
Length of Visible Light 13h 42m
Length of Day
12h 46m
Waxing Crescent, 17% of the Moon is Illuminated
Apr 3
Waxing Crescent
Apr 7
First Quarter
Apr 15
Full
Apr 22
Last Quarter
Apr 29
New

Hourly Weather History & Observations

Time (EDT) Temp. Windchill Dew Point Humidity Pressure Visibility Wind Dir Wind Speed Gust Speed Precip Events Conditions
12:54 AM 37.0 °F - 36.0 °F 96% 30.12 in - Calm Calm - N/A   Unknown
1:54 AM 37.0 °F 34.5 °F 37.0 °F 100% 30.12 in - NNE 3.5 mph - N/A   Unknown
2:54 AM 39.0 °F - 37.9 °F 96% 30.12 in - Calm Calm - N/A   Unknown
3:54 AM 39.9 °F - 37.0 °F 89% 30.12 in - Calm Calm - N/A   Unknown
4:54 AM 42.1 °F 38.4 °F 32.0 °F 67% 30.13 in - North 5.8 mph - N/A   Unknown
5:54 AM 42.1 °F 40.2 °F 27.0 °F 55% 30.13 in - NNE 3.5 mph - N/A   Unknown
6:54 AM 41.0 °F 39.0 °F 28.0 °F 60% 30.15 in - Variable 3.5 mph - N/A   Unknown
7:54 AM 42.1 °F 40.2 °F 28.0 °F 58% 30.16 in - Variable 3.5 mph - N/A   Unknown
8:54 AM 44.1 °F 40.8 °F 26.1 °F 49% 30.17 in - North 5.8 mph - N/A   Unknown
9:54 AM 46.9 °F - 25.0 °F 42% 30.16 in - Variable 6.9 mph - N/A   Unknown
10:54 AM 51.1 °F - 23.0 °F 33% 30.14 in - Variable 3.5 mph - N/A   Unknown
11:54 AM 55.0 °F - 19.9 °F 25% 30.12 in - NE 5.8 mph - N/A   Unknown
12:54 PM 57.9 °F - 17.1 °F 20% 30.10 in - Variable 3.5 mph - N/A   Unknown
1:54 PM 62.1 °F - 16.0 °F 17% 30.07 in - Variable 3.5 mph - N/A   Unknown
2:54 PM 62.1 °F - 15.1 °F 16% 30.05 in - East 3.5 mph - N/A   Unknown
3:54 PM 64.0 °F - 15.1 °F 15% 30.03 in - Variable 4.6 mph - N/A   Unknown
4:54 PM 62.1 °F - 18.0 °F 18% 30.01 in - Variable 3.5 mph - N/A   Unknown
5:54 PM 60.1 °F - 19.0 °F 20% 30.01 in - Variable 3.5 mph - N/A   Unknown
6:54 PM 57.0 °F - 19.9 °F 24% 30.01 in - Calm Calm - N/A   Unknown
7:54 PM 51.1 °F - 28.0 °F 41% 29.99 in - NE 3.5 mph - N/A   Unknown
8:54 PM 51.1 °F - 27.0 °F 39% 30.01 in - Calm Calm - N/A   Unknown
9:54 PM 51.1 °F - 28.9 °F 43% 30.06 in - Calm Calm - N/A   Unknown
11:54 PM 44.1 °F - 41.0 °F 89% 30.07 in - Calm Calm - 0.04 in   Unknown